Year,Month,Day,Hour,Minute,Value (Times are PST for windspeed in km/hr)
2007,02,15,00,00,0.00
2007,02,15,00,01,0.00
2007,02,15,00,02,0.00
2007,02,15,00,03,0.00
2007,02,15,00,04,0.00
2007,02,15,00,05,0.00
2007,02,15,00,06,0.00
2007,02,15,00,07,0.00
2007,02,15,00,08,0.00
2007,02,15,00,09,0.00
2007,02,15,00,10,0.00
2007,02,15,00,11,0.00
2007,02,15,00,12,0.00
2007,02,15,00,13,0.00
2007,02,15,00,14,0.00
2007,02,15,00,15,0.00
2007,02,15,00,16,1.20
2007,02,15,00,17,0.00
2007,02,15,00,18,0.10
2007,02,15,00,19,0.00
2007,02,15,00,20,0.00
2007,02,15,00,21,0.00
2007,02,15,00,22,0.00
2007,02,15,00,23,0.00
2007,02,15,00,24,0.00
2007,02,15,00,25,0.00
2007,02,15,00,26,0.00
2007,02,15,00,27,0.00
2007,02,15,00,28,0.00
2007,02,15,00,29,0.00
2007,02,15,00,30,0.00
2007,02,15,00,31,0.00
2007,02,15,00,32,0.00
2007,02,15,00,33,0.00
2007,02,15,00,34,0.00
2007,02,15,00,35,0.00
2007,02,15,00,36,0.00
2007,02,15,00,37,0.00
2007,02,15,00,38,0.00
2007,02,15,00,39,0.00
2007,02,15,00,40,0.00
2007,02,15,00,41,0.00
2007,02,15,00,42,0.00
2007,02,15,00,43,0.00
2007,02,15,00,44,0.00
2007,02,15,00,45,0.00
2007,02,15,00,46,0.00
2007,02,15,00,47,0.00
2007,02,15,00,48,0.00
2007,02,15,00,49,0.00
2007,02,15,00,50,0.00
2007,02,15,00,51,0.00
2007,02,15,00,52,0.00
2007,02,15,00,53,0.00
2007,02,15,00,54,0.00
2007,02,15,00,55,0.00
2007,02,15,00,56,0.00
2007,02,15,00,57,0.00
2007,02,15,00,58,0.00
2007,02,15,00,59,0.00
2007,02,15,01,00,0.00
2007,02,15,01,01,0.00
2007,02,15,01,02,0.00
2007,02,15,01,03,0.00
2007,02,15,01,04,0.00
2007,02,15,01,05,0.00
2007,02,15,01,06,0.00
2007,02,15,01,07,0.00
2007,02,15,01,08,0.00
2007,02,15,01,09,0.00
2007,02,15,01,10,0.00
2007,02,15,01,11,0.00
2007,02,15,01,12,0.00
2007,02,15,01,13,0.00
2007,02,15,01,14,0.00
2007,02,15,01,15,0.00
2007,02,15,01,16,0.00
2007,02,15,01,17,0.00
2007,02,15,01,18,0.00
2007,02,15,01,19,0.00
2007,02,15,01,20,0.00
2007,02,15,01,21,0.00
2007,02,15,01,22,0.00
2007,02,15,01,23,0.00
2007,02,15,01,24,0.00
2007,02,15,01,25,0.00
2007,02,15,01,26,0.00
2007,02,15,01,27,0.00
2007,02,15,01,28,0.00
2007,02,15,01,29,0.00
2007,02,15,01,30,0.00
2007,02,15,01,31,0.00
2007,02,15,01,32,0.00
2007,02,15,01,33,0.00
2007,02,15,01,34,0.00
2007,02,15,01,35,0.00
2007,02,15,01,36,0.00
2007,02,15,01,37,0.00
2007,02,15,01,38,0.00
2007,02,15,01,39,0.00
2007,02,15,01,40,0.00
2007,02,15,01,41,0.00
2007,02,15,01,42,0.00
2007,02,15,01,43,0.00
2007,02,15,01,44,0.00
2007,02,15,01,45,0.00
2007,02,15,01,46,0.00
2007,02,15,01,47,0.00
2007,02,15,01,48,0.00
2007,02,15,01,49,0.00
2007,02,15,01,50,0.00
2007,02,15,01,51,0.00
2007,02,15,01,52,0.00
2007,02,15,01,53,0.00
2007,02,15,01,54,0.00
2007,02,15,01,55,0.00
2007,02,15,01,56,0.00
2007,02,15,01,57,0.00
2007,02,15,01,58,0.00
2007,02,15,01,59,0.00
2007,02,15,02,00,0.00
2007,02,15,02,01,0.00
2007,02,15,02,02,0.00
2007,02,15,02,03,0.00
2007,02,15,02,04,0.00
2007,02,15,02,05,0.00
2007,02,15,02,06,0.00
2007,02,15,02,07,0.10
2007,02,15,02,08,0.00
2007,02,15,02,09,0.00
2007,02,15,02,10,0.00
2007,02,15,02,11,0.00
2007,02,15,02,12,0.00
2007,02,15,02,13,0.00
2007,02,15,02,14,0.00
2007,02,15,02,15,0.00
2007,02,15,02,16,0.10
2007,02,15,02,17,0.10
2007,02,15,02,18,0.00
2007,02,15,02,19,0.00
2007,02,15,02,20,0.00
2007,02,15,02,21,0.00
2007,02,15,02,22,0.00
2007,02,15,02,23,0.00
2007,02,15,02,24,0.00
2007,02,15,02,25,0.00
2007,02,15,02,26,0.00
2007,02,15,02,27,0.00
2007,02,15,02,28,0.00
2007,02,15,02,29,0.00
2007,02,15,02,30,0.00
2007,02,15,02,31,0.00
2007,02,15,02,32,0.00
2007,02,15,02,33,0.00
2007,02,15,02,34,0.00
2007,02,15,02,35,0.00
2007,02,15,02,36,0.00
2007,02,15,02,37,0.00
2007,02,15,02,38,0.00
2007,02,15,02,39,0.00
2007,02,15,02,40,0.00
2007,02,15,02,41,0.00
2007,02,15,02,42,0.00
2007,02,15,02,43,0.00
2007,02,15,02,44,0.00
2007,02,15,02,45,0.00
2007,02,15,02,46,0.00
2007,02,15,02,47,0.00
2007,02,15,02,48,0.00
2007,02,15,02,49,0.00
2007,02,15,02,50,0.00
2007,02,15,02,51,0.40
2007,02,15,02,52,0.20
2007,02,15,02,53,1.70
2007,02,15,02,54,1.00
2007,02,15,02,55,0.10
2007,02,15,02,56,0.40
2007,02,15,02,57,0.10
2007,02,15,02,58,0.20
2007,02,15,02,59,0.50
2007,02,15,03,00,2.70
2007,02,15,03,01,1.60
2007,02,15,03,02,0.30
2007,02,15,03,03,0.00
2007,02,15,03,04,0.00
2007,02,15,03,05,0.10
2007,02,15,03,06,0.10
2007,02,15,03,07,0.00
2007,02,15,03,08,0.00
2007,02,15,03,09,0.00
2007,02,15,03,10,0.00
2007,02,15,03,11,0.00
2007,02,15,03,12,0.00
2007,02,15,03,13,0.10
2007,02,15,03,14,0.00
2007,02,15,03,15,0.80
2007,02,15,03,16,0.60
2007,02,15,03,17,0.70
2007,02,15,03,18,0.30
2007,02,15,03,19,0.00
2007,02,15,03,20,0.00
2007,02,15,03,21,0.00
2007,02,15,03,22,0.00
2007,02,15,03,23,0.00
2007,02,15,03,24,0.00
2007,02,15,03,25,0.00
2007,02,15,03,26,0.00
2007,02,15,03,27,0.00
2007,02,15,03,28,0.50
2007,02,15,03,29,0.00
2007,02,15,03,30,0.00
2007,02,15,03,31,0.00
2007,02,15,03,32,0.00
2007,02,15,03,33,0.00
2007,02,15,03,34,0.00
2007,02,15,03,35,0.00
2007,02,15,03,36,0.00
2007,02,15,03,37,0.00
2007,02,15,03,38,0.00
2007,02,15,03,39,0.00
2007,02,15,03,40,0.00
2007,02,15,03,41,0.00
2007,02,15,03,42,0.00
2007,02,15,03,43,0.00
2007,02,15,03,44,0.00
2007,02,15,03,45,0.00
2007,02,15,03,46,0.10
2007,02,15,03,47,0.00
2007,02,15,03,48,0.00
2007,02,15,03,49,0.00
2007,02,15,03,50,0.00
2007,02,15,03,51,0.00
2007,02,15,03,52,0.80
2007,02,15,03,53,0.00
2007,02,15,03,54,0.00
2007,02,15,03,55,0.00
2007,02,15,03,56,0.00
2007,02,15,03,57,0.00
2007,02,15,03,58,0.00
2007,02,15,03,59,0.00
2007,02,15,04,00,0.00
2007,02,15,04,01,0.00
2007,02,15,04,02,0.00
2007,02,15,04,03,0.30
2007,02,15,04,04,0.10
2007,02,15,04,05,0.00
2007,02,15,04,06,0.00
2007,02,15,04,07,0.00
2007,02,15,04,08,0.00
2007,02,15,04,09,0.30
2007,02,15,04,10,0.00
2007,02,15,04,11,0.00
2007,02,15,04,12,0.00
2007,02,15,04,13,0.00
2007,02,15,04,14,0.30
2007,02,15,04,15,0.00
2007,02,15,04,16,0.00
2007,02,15,04,17,0.00
2007,02,15,04,18,0.00
2007,02,15,04,19,0.00
2007,02,15,04,20,0.90
2007,02,15,04,21,0.30
2007,02,15,04,22,0.00
2007,02,15,04,23,0.00
2007,02,15,04,24,0.00
2007,02,15,04,25,0.20
2007,02,15,04,26,0.30
2007,02,15,04,27,0.30
2007,02,15,04,28,0.00
2007,02,15,04,29,0.00
2007,02,15,04,30,0.00
2007,02,15,04,31,0.00
2007,02,15,04,32,0.00
2007,02,15,04,33,0.10
2007,02,15,04,34,0.10
2007,02,15,04,35,0.60
2007,02,15,04,36,0.00
2007,02,15,04,37,0.00
2007,02,15,04,38,0.30
2007,02,15,04,39,0.00
2007,02,15,04,40,0.00
2007,02,15,04,41,0.00
2007,02,15,04,42,0.00
2007,02,15,04,43,0.00
2007,02,15,04,44,0.20
2007,02,15,04,45,0.40
2007,02,15,04,46,0.00
2007,02,15,04,47,0.00
2007,02,15,04,48,0.10
2007,02,15,04,49,0.20
2007,02,15,04,50,0.20
2007,02,15,04,51,0.00
2007,02,15,04,52,1.10
2007,02,15,04,53,3.00
2007,02,15,04,54,3.20
2007,02,15,04,55,1.60
2007,02,15,04,56,1.80
2007,02,15,04,57,0.00
2007,02,15,04,58,0.60
2007,02,15,04,59,0.00
2007,02,15,05,00,0.00
2007,02,15,05,01,0.00
2007,02,15,05,02,0.80
2007,02,15,05,03,0.00
2007,02,15,05,04,0.00
2007,02,15,05,05,0.10
2007,02,15,05,06,0.70
2007,02,15,05,07,0.80
2007,02,15,05,08,0.10
2007,02,15,05,09,0.60
2007,02,15,05,10,0.40
2007,02,15,05,11,0.00
2007,02,15,05,12,0.00
2007,02,15,05,13,0.00
2007,02,15,05,14,0.00
2007,02,15,05,15,0.00
2007,02,15,05,16,0.30
2007,02,15,05,17,0.00
2007,02,15,05,18,0.00
2007,02,15,05,19,0.60
2007,02,15,05,20,0.10
2007,02,15,05,21,0.80
2007,02,15,05,22,0.10
2007,02,15,05,23,0.00
2007,02,15,05,24,0.00
2007,02,15,05,25,0.00
2007,02,15,05,26,0.30
2007,02,15,05,27,0.40
2007,02,15,05,28,0.60
2007,02,15,05,29,0.00
2007,02,15,05,30,0.00
2007,02,15,05,31,0.00
2007,02,15,05,32,0.00
2007,02,15,05,33,0.00
2007,02,15,05,34,0.20
2007,02,15,05,35,0.00
2007,02,15,05,36,1.10
2007,02,15,05,37,0.10
2007,02,15,05,38,0.00
2007,02,15,05,39,0.00
2007,02,15,05,40,1.00
2007,02,15,05,41,1.90
2007,02,15,05,42,1.30
2007,02,15,05,43,0.60
2007,02,15,05,44,0.10
2007,02,15,05,45,1.20
2007,02,15,05,46,1.30
2007,02,15,05,47,0.30
2007,02,15,05,48,1.20
2007,02,15,05,49,0.90
2007,02,15,05,50,1.40
2007,02,15,05,51,2.70
2007,02,15,05,52,3.10
2007,02,15,05,53,2.40
2007,02,15,05,54,0.80
2007,02,15,05,55,2.10
2007,02,15,05,56,0.00
2007,02,15,05,57,0.00
2007,02,15,05,58,0.30
2007,02,15,05,59,0.00
2007,02,15,06,00,0.00
2007,02,15,06,01,0.10
2007,02,15,06,02,0.20
2007,02,15,06,03,0.20
2007,02,15,06,04,0.90
2007,02,15,06,05,0.10
2007,02,15,06,06,0.00
2007,02,15,06,07,0.20
2007,02,15,06,08,0.00
2007,02,15,06,09,0.20
2007,02,15,06,10,0.00
2007,02,15,06,11,0.30
2007,02,15,06,12,0.20
2007,02,15,06,13,0.00
2007,02,15,06,14,0.00
2007,02,15,06,15,0.00
2007,02,15,06,16,0.10
2007,02,15,06,17,0.00
2007,02,15,06,18,0.70
2007,02,15,06,19,1.40
2007,02,15,06,20,0.00
2007,02,15,06,21,1.20
2007,02,15,06,22,0.10
2007,02,15,06,23,0.00
2007,02,15,06,24,0.30
2007,02,15,06,25,0.20
2007,02,15,06,26,0.20
2007,02,15,06,27,0.30
2007,02,15,06,28,0.10
2007,02,15,06,29,0.00
2007,02,15,06,30,0.00
2007,02,15,06,31,0.00
2007,02,15,06,32,0.00
2007,02,15,06,33,0.00
2007,02,15,06,34,0.50
2007,02,15,06,35,0.70
2007,02,15,06,36,0.10
2007,02,15,06,37,0.00
2007,02,15,06,38,0.00
2007,02,15,06,39,0.10
2007,02,15,06,40,1.00
2007,02,15,06,41,1.90
2007,02,15,06,42,0.30
2007,02,15,06,43,0.00
2007,02,15,06,44,0.00
2007,02,15,06,45,0.00
2007,02,15,06,46,0.60
2007,02,15,06,47,0.70
2007,02,15,06,48,0.70
2007,02,15,06,49,0.30
2007,02,15,06,50,0.00
2007,02,15,06,51,0.00
2007,02,15,06,52,0.10
2007,02,15,06,53,0.30
2007,02,15,06,54,0.50
2007,02,15,06,55,0.10
2007,02,15,06,56,0.20
2007,02,15,06,57,4.10
2007,02,15,06,58,4.40
2007,02,15,06,59,2.60
2007,02,15,07,00,0.30
2007,02,15,07,01,1.20
2007,02,15,07,02,6.00
2007,02,15,07,03,4.70
2007,02,15,07,04,2.20
2007,02,15,07,05,0.20
2007,02,15,07,06,1.00
2007,02,15,07,07,0.60
2007,02,15,07,08,0.20
2007,02,15,07,09,0.00
2007,02,15,07,10,0.00
2007,02,15,07,11,0.10
2007,02,15,07,12,0.00
2007,02,15,07,13,0.00
2007,02,15,07,14,0.00
2007,02,15,07,15,0.20
2007,02,15,07,16,0.00
2007,02,15,07,17,0.00
2007,02,15,07,18,0.00
2007,02,15,07,19,0.00
2007,02,15,07,20,0.00
2007,02,15,07,21,0.00
2007,02,15,07,22,0.00
2007,02,15,07,23,0.00
2007,02,15,07,24,0.00
2007,02,15,07,25,0.00
2007,02,15,07,26,0.00
2007,02,15,07,27,0.00
2007,02,15,07,28,0.00
2007,02,15,07,29,0.00
2007,02,15,07,30,0.10
2007,02,15,07,31,1.50
2007,02,15,07,32,1.20
2007,02,15,07,33,0.30
2007,02,15,07,34,0.00
2007,02,15,07,35,1.10
2007,02,15,07,36,1.70
2007,02,15,07,37,1.40
2007,02,15,07,38,1.40
2007,02,15,07,39,2.00
2007,02,15,07,40,0.40
2007,02,15,07,41,0.60
2007,02,15,07,42,2.00
2007,02,15,07,43,2.30
2007,02,15,07,44,3.20
2007,02,15,07,45,2.30
2007,02,15,07,46,0.70
2007,02,15,07,47,0.60
2007,02,15,07,48,1.10
2007,02,15,07,49,1.90
2007,02,15,07,50,1.30
2007,02,15,07,51,1.10
2007,02,15,07,52,0.20
2007,02,15,07,53,0.70
2007,02,15,07,54,2.90
2007,02,15,07,55,0.90
2007,02,15,07,56,1.00
2007,02,15,07,57,0.30
2007,02,15,07,58,0.00
2007,02,15,07,59,0.00
2007,02,15,08,00,0.00
2007,02,15,08,01,0.00
2007,02,15,08,02,0.00
2007,02,15,08,03,0.00
2007,02,15,08,04,0.00
2007,02,15,08,05,0.00
2007,02,15,08,06,0.00
2007,02,15,08,07,0.00
2007,02,15,08,08,0.00
2007,02,15,08,09,0.00
2007,02,15,08,10,0.00
2007,02,15,08,11,0.00
2007,02,15,08,12,0.10
2007,02,15,08,13,0.10
2007,02,15,08,14,0.10
2007,02,15,08,15,0.00
2007,02,15,08,16,0.00
2007,02,15,08,17,0.00
2007,02,15,08,18,0.00
2007,02,15,08,19,0.00
2007,02,15,08,20,0.50
2007,02,15,08,21,0.20
2007,02,15,08,22,1.20
2007,02,15,08,23,0.30
2007,02,15,08,24,1.50
2007,02,15,08,25,3.70
2007,02,15,08,26,1.10
2007,02,15,08,27,1.90
2007,02,15,08,28,0.30
2007,02,15,08,29,0.80
2007,02,15,08,30,2.40
2007,02,15,08,31,2.50
2007,02,15,08,32,1.00
2007,02,15,08,33,0.20
2007,02,15,08,34,0.30
2007,02,15,08,35,1.90
2007,02,15,08,36,1.20
2007,02,15,08,37,2.60
2007,02,15,08,38,2.10
2007,02,15,08,39,2.20
2007,02,15,08,40,2.10
2007,02,15,08,41,1.40
2007,02,15,08,42,0.90
2007,02,15,08,43,1.60
2007,02,15,08,44,4.00
2007,02,15,08,45,2.40
2007,02,15,08,46,3.00
2007,02,15,08,47,3.50
2007,02,15,08,48,3.60
2007,02,15,08,49,6.90
2007,02,15,08,50,3.60
2007,02,15,08,51,3.50
2007,02,15,08,52,3.10
2007,02,15,08,53,2.90
2007,02,15,08,54,5.90
2007,02,15,08,55,2.60
2007,02,15,08,56,5.90
2007,02,15,08,57,4.20
2007,02,15,08,58,2.30
2007,02,15,08,59,5.10
2007,02,15,09,00,3.10
2007,02,15,09,01,2.10
2007,02,15,09,02,2.10
2007,02,15,09,03,0.50
2007,02,15,09,04,1.70
2007,02,15,09,05,1.20
2007,02,15,09,06,3.00
2007,02,15,09,07,1.50
2007,02,15,09,08,4.70
2007,02,15,09,09,1.80
2007,02,15,09,10,1.50
2007,02,15,09,11,1.90
2007,02,15,09,12,1.20
2007,02,15,09,13,0.50
2007,02,15,09,14,0.20
2007,02,15,09,15,0.50
2007,02,15,09,16,0.50
2007,02,15,09,17,1.30
2007,02,15,09,18,1.20
2007,02,15,09,19,1.50
2007,02,15,09,20,1.00
2007,02,15,09,21,3.50
2007,02,15,09,22,0.90
2007,02,15,09,23,2.50
2007,02,15,09,24,0.40
2007,02,15,09,25,3.00
2007,02,15,09,26,2.90
2007,02,15,09,27,2.30
2007,02,15,09,28,0.90
2007,02,15,09,29,1.50
2007,02,15,09,30,1.40
2007,02,15,09,31,1.00
2007,02,15,09,32,1.90
2007,02,15,09,33,1.00
2007,02,15,09,34,1.60
2007,02,15,09,35,1.50
2007,02,15,09,36,0.00
2007,02,15,09,37,0.60
2007,02,15,09,38,1.90
2007,02,15,09,39,0.10
2007,02,15,09,40,0.90
2007,02,15,09,41,0.60
2007,02,15,09,42,0.70
2007,02,15,09,43,0.30
2007,02,15,09,44,0.80
2007,02,15,09,45,1.40
2007,02,15,09,46,0.40
2007,02,15,09,47,0.40
2007,02,15,09,48,1.20
2007,02,15,09,49,1.60
2007,02,15,09,50,0.80
2007,02,15,09,51,1.70
2007,02,15,09,52,1.90
2007,02,15,09,53,3.30
2007,02,15,09,54,0.80
2007,02,15,09,55,4.70
2007,02,15,09,56,2.80
2007,02,15,09,57,4.90
2007,02,15,09,58,7.00
2007,02,15,09,59,3.90
2007,02,15,10,00,4.50
2007,02,15,10,01,4.10
2007,02,15,10,02,3.30
2007,02,15,10,03,5.70
2007,02,15,10,04,4.70
2007,02,15,10,05,8.10
2007,02,15,10,06,12.20
2007,02,15,10,07,10.40
2007,02,15,10,08,7.50
2007,02,15,10,09,9.10
2007,02,15,10,10,16.00
2007,02,15,10,11,14.10
2007,02,15,10,12,14.50
2007,02,15,10,13,16.40
2007,02,15,10,14,15.40
2007,02,15,10,15,19.80
2007,02,15,10,16,29.00
2007,02,15,10,17,12.60
2007,02,15,10,18,15.60
2007,02,15,10,19,15.90
2007,02,15,10,20,14.20
2007,02,15,10,21,18.50
2007,02,15,10,22,17.50
2007,02,15,10,23,23.70
2007,02,15,10,24,17.30
2007,02,15,10,25,12.80
2007,02,15,10,26,17.10
2007,02,15,10,27,16.90
2007,02,15,10,28,11.30
2007,02,15,10,29,14.30
2007,02,15,10,30,19.90
2007,02,15,10,31,22.80
2007,02,15,10,32,14.30
2007,02,15,10,33,25.00
2007,02,15,10,34,17.80
2007,02,15,10,35,11.40
2007,02,15,10,36,17.00
2007,02,15,10,37,13.40
2007,02,15,10,38,13.70
2007,02,15,10,39,17.60
2007,02,15,10,40,16.10
2007,02,15,10,41,18.00
2007,02,15,10,42,14.30
2007,02,15,10,43,13.60
2007,02,15,10,44,14.90
2007,02,15,10,45,14.60
2007,02,15,10,46,12.70
2007,02,15,10,47,10.30
2007,02,15,10,48,17.60
2007,02,15,10,49,17.70
2007,02,15,10,50,15.70
2007,02,15,10,51,11.80
2007,02,15,10,52,19.60
2007,02,15,10,53,24.90
2007,02,15,10,54,27.40
2007,02,15,10,55,24.90
2007,02,15,10,56,18.90
2007,02,15,10,57,21.90
2007,02,15,10,58,23.40
2007,02,15,10,59,17.80
2007,02,15,11,00,13.50
2007,02,15,11,01,13.40
2007,02,15,11,02,16.60
2007,02,15,11,03,22.20
2007,02,15,11,04,21.90
2007,02,15,11,05,24.80
2007,02,15,11,06,26.80
2007,02,15,11,07,22.40
2007,02,15,11,08,19.30
2007,02,15,11,09,27.80
2007,02,15,11,10,23.90
2007,02,15,11,11,24.90
2007,02,15,11,12,25.00
2007,02,15,11,13,25.70
2007,02,15,11,14,23.70
2007,02,15,11,15,24.60
2007,02,15,11,16,22.70
2007,02,15,11,17,22.00
2007,02,15,11,18,23.00
2007,02,15,11,19,21.30
2007,02,15,11,20,20.40
2007,02,15,11,21,19.10
2007,02,15,11,22,28.00
2007,02,15,11,23,16.10
2007,02,15,11,24,8.60
2007,02,15,11,25,15.60
2007,02,15,11,26,19.20
2007,02,15,11,27,15.10
2007,02,15,11,28,12.00
2007,02,15,11,29,17.70
2007,02,15,11,30,21.90
2007,02,15,11,31,22.70
2007,02,15,11,32,22.90
2007,02,15,11,33,18.70
2007,02,15,11,34,17.80
2007,02,15,11,35,24.20
2007,02,15,11,36,15.40
2007,02,15,11,37,17.30
2007,02,15,11,38,21.70
2007,02,15,11,39,15.20
2007,02,15,11,40,14.20
2007,02,15,11,41,19.70
2007,02,15,11,42,24.70
2007,02,15,11,43,20.40
2007,02,15,11,44,17.20
2007,02,15,11,45,20.00
2007,02,15,11,46,13.30
2007,02,15,11,47,17.80
2007,02,15,11,48,20.50
2007,02,15,11,49,18.00
2007,02,15,11,50,22.40
2007,02,15,11,51,18.10
2007,02,15,11,52,22.00
2007,02,15,11,53,32.20
2007,02,15,11,54,28.10
2007,02,15,11,55,18.80
2007,02,15,11,56,25.60
2007,02,15,11,57,17.80
2007,02,15,11,58,30.70
2007,02,15,11,59,24.20
2007,02,15,12,00,27.40
2007,02,15,12,01,22.20
2007,02,15,12,02,25.00
2007,02,15,12,03,19.00
2007,02,15,12,04,20.70
2007,02,15,12,05,19.20
2007,02,15,12,06,25.30
2007,02,15,12,07,31.40
2007,02,15,12,08,26.40
2007,02,15,12,09,21.80
2007,02,15,12,10,19.60
2007,02,15,12,11,22.20
2007,02,15,12,12,20.00
2007,02,15,12,13,26.70
2007,02,15,12,14,24.70
2007,02,15,12,15,22.40
2007,02,15,12,16,24.60
2007,02,15,12,17,27.50
2007,02,15,12,18,23.80
2007,02,15,12,19,37.30
2007,02,15,12,20,33.20
2007,02,15,12,21,27.90
2007,02,15,12,22,28.40
2007,02,15,12,23,39.20
2007,02,15,12,24,24.00
2007,02,15,12,25,14.30
2007,02,15,12,26,28.70
2007,02,15,12,27,32.70
2007,02,15,12,28,25.40
2007,02,15,12,29,29.10
2007,02,15,12,30,24.20
2007,02,15,12,31,22.40
2007,02,15,12,32,26.20
2007,02,15,12,33,22.40
2007,02,15,12,34,18.70
2007,02,15,12,35,27.40
2007,02,15,12,36,38.30
2007,02,15,12,37,29.10
2007,02,15,12,38,31.70
2007,02,15,12,39,27.80
2007,02,15,12,40,24.90
2007,02,15,12,41,33.20
2007,02,15,12,42,23.70
2007,02,15,12,43,27.40
2007,02,15,12,44,23.50
2007,02,15,12,45,24.10
2007,02,15,12,46,30.70
2007,02,15,12,47,26.20
2007,02,15,12,48,23.90
2007,02,15,12,49,25.70
2007,02,15,12,50,32.90
2007,02,15,12,51,22.80
2007,02,15,12,52,33.00
2007,02,15,12,53,29.60
2007,02,15,12,54,24.90
2007,02,15,12,55,25.00
2007,02,15,12,56,30.10
2007,02,15,12,57,29.40
2007,02,15,12,58,27.70
2007,02,15,12,59,20.10
2007,02,15,13,00,35.30
2007,02,15,13,01,27.80
2007,02,15,13,02,31.10
2007,02,15,13,03,20.10
2007,02,15,13,04,27.20
2007,02,15,13,05,40.10
2007,02,15,13,06,38.30
2007,02,15,13,07,46.70
2007,02,15,13,08,39.10
2007,02,15,13,09,30.90
2007,02,15,13,10,36.40
2007,02,15,13,11,20.90
2007,02,15,13,12,29.10
2007,02,15,13,13,20.40
2007,02,15,13,14,19.10
2007,02,15,13,15,27.00
2007,02,15,13,16,22.80
2007,02,15,13,17,25.40
2007,02,15,13,18,29.00
2007,02,15,13,19,22.80
2007,02,15,13,20,24.80
2007,02,15,13,21,23.70
2007,02,15,13,22,32.90
2007,02,15,13,23,29.80
2007,02,15,13,24,28.10
2007,02,15,13,25,31.10
2007,02,15,13,26,26.10
2007,02,15,13,27,22.20
2007,02,15,13,28,30.70
2007,02,15,13,29,30.50
2007,02,15,13,30,27.20
2007,02,15,13,31,20.30
2007,02,15,13,32,24.70
2007,02,15,13,33,26.60
2007,02,15,13,34,33.60
2007,02,15,13,35,27.60
2007,02,15,13,36,24.20
2007,02,15,13,37,24.30
2007,02,15,13,38,23.20
2007,02,15,13,39,22.00
2007,02,15,13,40,21.90
2007,02,15,13,41,16.10
2007,02,15,13,42,23.10
2007,02,15,13,43,16.10
2007,02,15,13,44,30.40
2007,02,15,13,45,27.40
2007,02,15,13,46,21.70
2007,02,15,13,47,21.80
2007,02,15,13,48,28.70
2007,02,15,13,49,20.20
2007,02,15,13,50,18.10
2007,02,15,13,51,22.40
2007,02,15,13,52,26.70
2007,02,15,13,53,21.80
2007,02,15,13,54,27.80
2007,02,15,13,55,26.20
2007,02,15,13,56,26.90
2007,02,15,13,57,25.90
2007,02,15,13,58,27.90
2007,02,15,13,59,31.00
2007,02,15,14,00,26.50
2007,02,15,14,01,24.90
2007,02,15,14,02,23.50
2007,02,15,14,03,23.70
2007,02,15,14,04,25.20
2007,02,15,14,05,24.00
2007,02,15,14,06,21.10
2007,02,15,14,07,24.90
2007,02,15,14,08,13.60
2007,02,15,14,09,26.30
2007,02,15,14,10,19.50
2007,02,15,14,11,17.40
2007,02,15,14,12,14.70
2007,02,15,14,13,26.50
2007,02,15,14,14,23.70
2007,02,15,14,15,21.30
2007,02,15,14,16,20.80
2007,02,15,14,17,15.40
2007,02,15,14,18,25.30
2007,02,15,14,19,22.00
2007,02,15,14,20,20.00
2007,02,15,14,21,27.40
2007,02,15,14,22,25.50
2007,02,15,14,23,31.50
2007,02,15,14,24,30.70
2007,02,15,14,25,34.10
2007,02,15,14,26,23.00
2007,02,15,14,27,21.20
2007,02,15,14,28,19.30
2007,02,15,14,29,27.40
2007,02,15,14,30,26.60
2007,02,15,14,31,23.50
2007,02,15,14,32,21.50
2007,02,15,14,33,19.50
2007,02,15,14,34,29.50
2007,02,15,14,35,35.40
2007,02,15,14,36,28.80
2007,02,15,14,37,28.30
2007,02,15,14,38,23.20
2007,02,15,14,39,30.90
2007,02,15,14,40,28.80
2007,02,15,14,41,34.30
2007,02,15,14,42,28.00
2007,02,15,14,43,29.50
2007,02,15,14,44,32.80
2007,02,15,14,45,35.50
2007,02,15,14,46,14.60
2007,02,15,14,47,19.70
2007,02,15,14,48,30.30
2007,02,15,14,49,33.30
2007,02,15,14,50,17.90
2007,02,15,14,51,21.20
2007,02,15,14,52,25.20
2007,02,15,14,53,21.60
2007,02,15,14,54,18.50
2007,02,15,14,55,23.00
2007,02,15,14,56,35.20
2007,02,15,14,57,29.00
2007,02,15,14,58,28.70
2007,02,15,14,59,19.70
2007,02,15,15,00,25.00
2007,02,15,15,01,25.30
2007,02,15,15,02,23.50
2007,02,15,15,03,28.90
2007,02,15,15,04,29.10
2007,02,15,15,05,17.90
2007,02,15,15,06,19.10
2007,02,15,15,07,21.60
2007,02,15,15,08,22.60
2007,02,15,15,09,22.00
2007,02,15,15,10,22.90
2007,02,15,15,11,32.50
2007,02,15,15,12,20.50
2007,02,15,15,13,18.40
2007,02,15,15,14,27.10
2007,02,15,15,15,25.30
2007,02,15,15,16,24.30
2007,02,15,15,17,23.70
2007,02,15,15,18,31.90
2007,02,15,15,19,25.40
2007,02,15,15,20,26.30
2007,02,15,15,21,21.70
2007,02,15,15,22,20.10
2007,02,15,15,23,22.10
2007,02,15,15,24,20.20
2007,02,15,15,25,20.60
2007,02,15,15,26,24.30
2007,02,15,15,27,18.00
2007,02,15,15,28,18.50
2007,02,15,15,29,27.80
2007,02,15,15,30,27.90
2007,02,15,15,31,28.70
2007,02,15,15,32,31.70
2007,02,15,15,33,23.70
2007,02,15,15,34,19.90
2007,02,15,15,35,23.90
2007,02,15,15,36,26.20
2007,02,15,15,37,23.90
2007,02,15,15,38,12.70
2007,02,15,15,39,13.50
2007,02,15,15,40,16.40
2007,02,15,15,41,28.00
2007,02,15,15,42,19.60
2007,02,15,15,43,11.90
2007,02,15,15,44,16.80
2007,02,15,15,45,20.10
2007,02,15,15,46,22.00
2007,02,15,15,47,21.90
2007,02,15,15,48,23.60
2007,02,15,15,49,22.10
2007,02,15,15,50,25.90
2007,02,15,15,51,26.00
2007,02,15,15,52,23.90
2007,02,15,15,53,19.60
2007,02,15,15,54,18.00
2007,02,15,15,55,27.30
2007,02,15,15,56,23.00
2007,02,15,15,57,25.00
2007,02,15,15,58,24.00
2007,02,15,15,59,18.10
2007,02,15,16,00,17.40
2007,02,15,16,01,20.60
2007,02,15,16,02,13.30
2007,02,15,16,03,16.60
2007,02,15,16,04,23.00
2007,02,15,16,05,21.10
2007,02,15,16,06,17.30
2007,02,15,16,07,21.70
2007,02,15,16,08,24.30
2007,02,15,16,09,22.70
2007,02,15,16,10,26.60
2007,02,15,16,11,26.10
2007,02,15,16,12,23.00
2007,02,15,16,13,23.30
2007,02,15,16,14,32.30
2007,02,15,16,15,20.40
2007,02,15,16,16,23.60
2007,02,15,16,17,30.70
2007,02,15,16,18,17.80
2007,02,15,16,19,29.60
2007,02,15,16,20,16.40
2007,02,15,16,21,28.90
2007,02,15,16,22,24.90
2007,02,15,16,23,22.10
2007,02,15,16,24,16.80
2007,02,15,16,25,19.40
2007,02,15,16,26,31.10
2007,02,15,16,27,13.10
2007,02,15,16,28,24.30
2007,02,15,16,29,22.40
2007,02,15,16,30,21.90
2007,02,15,16,31,28.20
2007,02,15,16,32,19.90
2007,02,15,16,33,21.50
2007,02,15,16,34,26.40
2007,02,15,16,35,28.20
2007,02,15,16,36,23.70
2007,02,15,16,37,20.60
2007,02,15,16,38,29.80
2007,02,15,16,39,30.80
2007,02,15,16,40,23.80
2007,02,15,16,41,19.10
2007,02,15,16,42,19.70
2007,02,15,16,43,23.20
2007,02,15,16,44,22.60
2007,02,15,16,45,23.10
2007,02,15,16,46,18.20
2007,02,15,16,47,23.30
2007,02,15,16,48,28.60
2007,02,15,16,49,26.80
2007,02,15,16,50,30.50
2007,02,15,16,51,33.00
2007,02,15,16,52,26.60
2007,02,15,16,53,25.40
2007,02,15,16,54,28.40
2007,02,15,16,55,19.60
2007,02,15,16,56,23.00
2007,02,15,16,57,19.40
2007,02,15,16,58,15.40
2007,02,15,16,59,17.30
2007,02,15,17,00,21.90
2007,02,15,17,01,31.30
2007,02,15,17,02,26.40
2007,02,15,17,03,18.40
2007,02,15,17,04,20.00
2007,02,15,17,05,23.30
2007,02,15,17,06,26.60
2007,02,15,17,07,20.10
2007,02,15,17,08,22.40
2007,02,15,17,09,20.70
2007,02,15,17,10,21.30
2007,02,15,17,11,21.90
2007,02,15,17,12,24.40
2007,02,15,17,13,17.80
2007,02,15,17,14,24.60
2007,02,15,17,15,20.00
2007,02,15,17,16,25.30
2007,02,15,17,17,24.50
2007,02,15,17,18,16.70
2007,02,15,17,19,17.00
2007,02,15,17,20,23.80
2007,02,15,17,21,19.10
2007,02,15,17,22,23.50
2007,02,15,17,23,19.60
2007,02,15,17,24,15.50
2007,02,15,17,25,24.20
2007,02,15,17,26,28.00
2007,02,15,17,27,19.40
2007,02,15,17,28,28.60
2007,02,15,17,29,27.30
2007,02,15,17,30,24.20
2007,02,15,17,31,14.00
2007,02,15,17,32,20.00
2007,02,15,17,33,22.10
2007,02,15,17,34,17.80
2007,02,15,17,35,22.90
2007,02,15,17,36,16.90
2007,02,15,17,37,22.80
2007,02,15,17,38,25.00
2007,02,15,17,39,16.20
2007,02,15,17,40,24.90
2007,02,15,17,41,26.30
2007,02,15,17,42,22.50
2007,02,15,17,43,19.80
2007,02,15,17,44,17.10
2007,02,15,17,45,13.80